Deer Park, WA

7:56 AM PDT on October 20, 2017 (GMT -0700)
Deer Park

Weather History for KDEW - April, 2013

Change the Weather History Date:

Saturday, April 27, 2013

  Actual Average Record
Temperature  
Mean Temperature 56 °F 47 °F  
Max Temperature 64 °F 61 °F 77 °F (2001)
Min Temperature 47 °F 33 °F 21 °F (1999)
Degree Days  
Heating Degree Days 9 18  
Month to date heating degree days 500 553  
Since 1 July heating degree days 6405 6760  
Cooling Degree Days 0 0  
Month to date cooling degree days 0 0  
Year to date cooling degree days 0 0  
Growing Degree Days 6 (Base 50)    
Moisture  
Dew Point 33 °F    
Average Humidity 42    
Maximum Humidity 56    
Minimum Humidity 27    
Precipitation  
Precipitation 0.00 in 0.04 in 0.45 in (2014)
Month to date precipitation 1.74 1.46  
Year to date precipitation 5.22 7.78  
Sea Level Pressure  
Sea Level Pressure 30.01 in    
Wind  
Wind Speed 12 mph (South)    
Max Wind Speed 30 mph    
Max Gust Speed 40 mph    
Visibility 10 miles    
Events      
T = Trace of Precipitation, MM = Missing Value Source: NWS Daily Summary

Daily Weather History Graph

Daily Weather History Graph

Search for Another Location

Airport or City:

Trip Planner

Search our weather history database for the weather conditions in past years. The results will help you decide how hot, cold, wet, or windy it might be!

Date:

Astronomy

Apr. 27, 2013 Rise Set
Actual Time 5:37 AM PDT 7:57 PM PDT
Civil Twilight 5:03 AM PDT 8:32 PM PDT
Nautical Twilight 4:21 AM PDT 9:14 PM PDT
Astronomical Twilight 3:32 AM PDT 10:03 PM PDT
Moon 10:40 PM PDT (4/27) 6:53 AM PDT (4/27)
Length of Visible Light 15h 28m
Length of Day
14h 19m
Waning Gibbous, 95% of the Moon is Illuminated
Apr 27
Waning Gibbous
May 2
Last Quarter
May 9
New
May 17
First Quarter
May 24
Full

Hourly Weather History & Observations

Time (PDT) Temp. Dew Point Humidity Pressure Visibility Wind Dir Wind Speed Gust Speed Precip Events Conditions
12:53 AM 57.0 °F 30.0 °F 36% 30.06 in 10.0 mi SSW 8.1 mph - N/A   Clear
1:53 AM 55.0 °F 30.0 °F 38% 30.06 in 10.0 mi SSW 9.2 mph - N/A   Clear
2:53 AM 52.0 °F 30.9 °F 45% 30.05 in 10.0 mi SSW 6.9 mph - N/A   Clear
3:53 AM 51.1 °F 32.0 °F 48% 30.06 in 10.0 mi South 8.1 mph - N/A   Clear
4:53 AM 51.1 °F 32.0 °F 48% 30.06 in 10.0 mi South 13.8 mph - N/A   Clear
5:53 AM 50.0 °F 34.0 °F 54% 30.07 in 10.0 mi SE 5.8 mph - N/A   Clear
6:53 AM 50.0 °F 33.1 °F 52% 30.08 in 10.0 mi SSE 8.1 mph - N/A   Clear
7:53 AM 50.0 °F 33.1 °F 52% 30.08 in 10.0 mi SSE 8.1 mph - N/A   Scattered Clouds
8:53 AM 51.1 °F 34.0 °F 52% 30.08 in 10.0 mi SSE 4.6 mph - N/A   Overcast
9:53 AM 52.0 °F 35.1 °F 53% 30.07 in 10.0 mi East 3.5 mph - N/A   Mostly Cloudy
10:53 AM 55.9 °F 37.0 °F 49% 30.04 in 10.0 mi South 9.2 mph - N/A   Scattered Clouds
11:53 AM 60.1 °F 33.1 °F 36% 30.02 in 10.0 mi South 18.4 mph - N/A   Clear
12:53 PM 62.1 °F 28.9 °F 29% 29.99 in 10.0 mi South 24.2 mph 32.2 mph N/A   Clear
1:53 PM 63.0 °F 28.9 °F 28% 29.98 in 10.0 mi SSW 25.3 mph 35.7 mph N/A   Clear
2:53 PM 62.1 °F 32.0 °F 32% 29.97 in 10.0 mi South 21.9 mph 28.8 mph N/A   Scattered Clouds
3:53 PM 63.0 °F 34.0 °F 34% 29.95 in 10.0 mi SW 18.4 mph 25.3 mph N/A   Mostly Cloudy
4:53 PM 63.0 °F 33.1 °F 33% 29.95 in 10.0 mi WSW 16.1 mph 23.0 mph N/A   Partly Cloudy
5:53 PM 62.1 °F 32.0 °F 32% 29.96 in 10.0 mi SW 19.6 mph 27.6 mph N/A   Mostly Cloudy
6:53 PM 59.0 °F 34.0 °F 39% 29.94 in 10.0 mi SW 12.7 mph - N/A   Clear
7:53 PM 57.9 °F 34.0 °F 41% 29.95 in 10.0 mi SW 11.5 mph - N/A   Clear
8:53 PM 55.9 °F 35.1 °F 45% 29.97 in 10.0 mi SSW 10.4 mph - N/A   Clear
9:53 PM 55.0 °F 35.1 °F 47% 29.98 in 10.0 mi SW 13.8 mph 24.2 mph N/A   Clear
10:53 PM 52.0 °F 36.0 °F 54% 29.98 in 10.0 mi South 11.5 mph - N/A   Clear
11:53 PM 50.0 °F 35.1 °F 57% 30.00 in 10.0 mi SSW 9.2 mph - N/A   Clear